Location: Terra Rouge Observatory
(46.0000°N, 62.7500°W)
Time: 13:18:55
(UTC-03:00)

Amateur Radio Satellites - All Passes

Search period start: 20 September 2017 12:48
Search period end: 21 September 2017 12:48
Location: Terra Rouge Observatory, 46.0000°N, 62.7500°W

Satellite Date Start Highest point End Downlink Frequencies (MHz)
Time Altitude Azimuth
YUBILEINY 20 Sep 12:53:29 13:01:51 55° 90° (E) 13:10:14 435.215
AIST 2D 20 Sep 12:55:58 12:56:51 11° 271° (W) 12:57:44 435.315
ESTCUBE 1 20 Sep 12:56:23 13:00:55 87° 284° (WNW) 13:05:24 437.505/2401.250
DUCHIFAT 1 20 Sep 13:03:35 13:07:22 33° 263° (W) 13:11:11 145.980
POLYITAN 1 20 Sep 13:12:01 13:15:20 22° 267° (W) 13:18:42 437.675
AO-7 20 Sep 13:15:46 13:20:49 18° 42° (NE) 13:25:49 .
Oscar 19 20 Sep 13:15:51 13:20:50 48° 69° (ENE) 13:25:50 437.125/150
EO-79 20 Sep 13:17:45 13:20:50 20° 267° (W) 13:23:57 145.935-145.965
DX 1 20 Sep 13:29:40 13:30:56 11° 88° (E) 13:32:12 434.975-435.025
QB50P2 20 Sep 13:31:04 13:33:13 14° 271° (W) 13:35:23 145.880/145.840
VELOX 1 20 Sep 13:42:17 13:46:37 55° 101° (E) 13:50:54 145.980
LO-87 20 Sep 13:45:12 13:47:05 14° 296° (WNW) 13:48:59 145.935 - 145.965
NO-84 20 Sep 13:49:11 13:50:51 12° 128° (SE) 13:52:26 435.350 FM
BUGSAT 1 20 Sep 13:54:22 13:57:59 32° 263° (W) 14:01:40 437.445
O/OREOS (USA 219) 20 Sep 14:07:03 14:11:13 34° 254° (WSW) 14:15:21 437.305
Gurwin Techsat 1B 20 Sep 14:09:24 14:14:43 86° 255° (WSW) 14:20:05 435.225
RS-15 20 Sep 14:09:52 14:21:49 56° 41° (NE) 14:33:05 29.354- 29.394
SPROUT 20 Sep 14:10:54 14:15:05 53° 288° (WNW) 14:19:15 437.525
ITAMSAT 1 20 Sep 14:15:09 14:17:53 15° 56° (NE) 14:20:38 435.822/435.867
SO-50 20 Sep 14:19:40 14:20:59 11° 108° (ESE) 14:22:18 436.795
50 SAT 20 Sep 14:21:33 14:24:47 50° 100° (E) 14:28:00 437.505
ESTCUBE 1 20 Sep 14:35:29 14:36:59 12° 303° (WNW) 14:38:29 437.505/2401.250
YUBILEINY 20 Sep 14:51:04 14:58:59 38° 292° (WNW) 15:06:57 435.215
Oscar 19 20 Sep 14:56:12 15:00:22 24° 267° (W) 15:04:35 437.125/150
DX 1 20 Sep 15:03:19 15:07:40 78° 286° (WNW) 15:11:59 434.975-435.025
AO-7 20 Sep 15:03:50 15:12:00 63° 64° (ENE) 15:20:10 .
UKube-1 20 Sep 15:04:18 15:08:36 71° 103° (ESE) 15:12:53 .
PCSat 20 Sep 15:16:24 15:20:47 25° 109° (ESE) 15:25:10 145.827
VELOX 1 20 Sep 15:19:44 15:22:39 18° 298° (WNW) 15:25:33 145.980
NO-84 20 Sep 15:24:08 15:27:50 83° 142° (SE) 15:31:14 435.350 FM
ITUPSAT 1 20 Sep 15:27:17 15:30:26 17° 91° (E) 15:33:33 437.325
MOZHAYETS 4 20 Sep 15:33:17 15:36:40 20° 92° (E) 15:40:01
ITAMSAT 1 20 Sep 15:51:26 15:56:36 89° 71° (ENE) 16:01:49 435.822/435.867
Gurwin Techsat 1B 20 Sep 15:53:26 15:55:27 12° 273° (W) 15:57:29 435.225
50 SAT 20 Sep 15:55:49 15:56:51 11° 298° (WNW) 15:57:53 437.505
SO-50 20 Sep 15:56:12 16:00:42 87° 122° (ESE) 16:05:14 436.795
BEESAT 20 Sep 16:05:33 16:10:03 39° 98° (E) 16:14:32 436.000
RS-15 20 Sep 16:22:54 16:34:24 56° 247° (WSW) 16:45:18 29.354- 29.394
UKube-1 20 Sep 16:41:52 16:44:04 14° 301° (WNW) 16:46:16 .
AO-7 20 Sep 16:57:52 17:05:12 34° 264° (W) 17:12:35 .
PCSat 20 Sep 16:58:31 17:03:50 55° 308° (NW) 17:09:11 145.827
NO-84 20 Sep 17:02:37 17:05:31 24° 341° (NNW) 17:08:14 435.350 FM
ITUPSAT 1 20 Sep 17:03:53 17:08:39 61° 288° (WNW) 17:13:23 437.325
MOZHAYETS 4 20 Sep 17:09:35 17:14:05 49° 289° (WNW) 17:18:33
CUTE-I 20 Sep 17:14:54 17:18:44 20° 59° (ENE) 17:22:32 437.470
XW-2C 20 Sep 17:17:34 17:19:56 16° 64° (ENE) 17:22:19 145.795 - 145.815
LilacSat-2 20 Sep 17:24:51 17:27:43 20° 66° (ENE) 17:30:35 437.200
CUBESAT XI-V 20 Sep 17:25:58 17:30:34 57° 100° (E) 17:35:06 437.345
DOVE 4 20 Sep 17:32:42 17:37:13 81° 75° (ENE) 17:41:30 437.250
ITAMSAT 1 20 Sep 17:34:36 17:36:46 13° 272° (W) 17:38:58 435.822/435.867
NUDT-PHONESAT 20 Sep 17:34:49 17:37:19 17° 65° (ENE) 17:39:50 437.300
SO-50 20 Sep 17:38:34 17:41:46 19° 326° (NW) 17:45:00 436.795
BEESAT 20 Sep 17:43:39 17:47:40 27° 296° (WNW) 17:51:40 436.000
KKS-1 20 Sep 17:55:58 18:00:10 40° 99° (E) 18:04:21 437.445
KAITUO 1B 20 Sep 17:56:27 17:59:47 30° 69° (ENE) 18:03:10 145.475/437.950
CUTE 1.7 + AOD 2 20 Sep 18:07:00 18:09:07 14° 60° (ENE) 18:11:14 437.475
HO-68 20 Sep 18:14:39 18:20:54 34° 59° (ENE) 18:27:12 435.675
XW-2D 20 Sep 18:16:29 18:20:19 71° 76° (ENE) 18:24:10 145.860 - 145.880
XW-2B 20 Sep 18:28:42 18:32:33 86° 259° (WSW) 18:36:26 145.730 - 145.750
STARS 20 Sep 18:30:37 18:34:45 39° 98° (E) 18:38:52 437.465
XW-2F 20 Sep 18:31:40 18:35:30 83° 257° (WSW) 18:39:22 145.980 - 146.000
RS-15 20 Sep 18:40:42 18:43:43 11° 270° (W) 18:46:42 29.354- 29.394
NO-84 20 Sep 18:41:34 18:43:43 16° 2° (N) 18:45:47 435.350 FM
PCSat 20 Sep 18:45:27 18:48:28 15° 330° (NNW) 18:51:31 145.827
XW-2A 20 Sep 18:46:41 18:47:52 11° 62° (ENE) 18:49:03 145.665 - 145.685
XW-2C 20 Sep 18:50:03 18:53:45 47° 261° (W) 18:57:30 145.795 - 145.815
CUTE-I 20 Sep 18:53:00 18:58:17 65° 258° (WSW) 19:03:35 437.470
LilacSat-2 20 Sep 18:58:10 19:01:45 36° 263° (W) 19:05:23 437.200
CUBESAT XI-V 20 Sep 19:04:19 19:07:30 19° 298° (WNW) 19:10:40 437.345
NUDT-PHONESAT 20 Sep 19:07:21 19:10:53 40° 262° (W) 19:14:28 437.300
ZACube-1 20 Sep 19:09:38 19:11:13 12° 58° (ENE) 19:12:49 437.345
AO-73 20 Sep 19:09:47 19:10:39 10° 57° (ENE) 19:11:31 145.935
DOVE 4 20 Sep 19:14:33 19:15:24 10° 272° (W) 19:16:15 437.250
SEEDS 20 Sep 19:19:17 19:23:19 43° 71° (ENE) 19:27:21 437.485
KAITUO 1B 20 Sep 19:30:49 19:33:48 22° 266° (W) 19:36:50 145.475/437.950
CUBEBUG 2 20 Sep 19:32:42 19:36:48 53° 72° (ENE) 19:41:03 437.445
KKS-1 20 Sep 19:33:00 19:36:30 23° 296° (WNW) 19:39:59 437.445
CUTE 1.7 + AOD 2 20 Sep 19:40:06 19:44:22 72° 257° (WSW) 19:48:42 437.475
UWE-3 20 Sep 19:47:07 19:51:11 44° 71° (ENE) 19:55:23 435.000/436.395/437.385
AAUSAT CUBESAT 2 20 Sep 19:52:49 19:56:48 45° 71° (ENE) 20:00:47 437.432
HO-68 20 Sep 20:01:23 20:08:21 55° 259° (WSW) 20:15:23 435.675
STARS 20 Sep 20:07:23 20:10:53 24° 296° (WNW) 20:14:22 437.465
XW-2A 20 Sep 20:16:48 20:20:08 53° 260° (W) 20:23:31 145.665 - 145.685
NO-84 20 Sep 20:19:02 20:21:50 31° 24° (NNE) 20:24:30 435.350 FM
AO-73 20 Sep 20:41:46 20:46:04 83° 76° (ENE) 20:50:32 145.935
ZACube-1 20 Sep 20:42:27 20:46:46 87° 260° (W) 20:51:13 437.345
STRAND 1 20 Sep 20:45:00 20:50:09 74° 103° (ESE) 20:55:18 437.568
Oscar 11 20 Sep 20:45:01 20:49:20 65° 74° (ENE) 20:53:40 .
SEEDS 20 Sep 20:56:09 20:59:12 19° 268° (W) 21:02:15 437.485
CUBEBUG 2 20 Sep 21:11:13 21:13:48 16° 271° (W) 21:16:26 437.445
AO-85 20 Sep 21:23:21 21:26:39 27° 116° (ESE) 21:30:00 145.980
UWE-3 20 Sep 21:24:50 21:27:53 19° 269° (W) 21:31:01 435.000/436.395/437.385
BEESAT 2 20 Sep 21:26:19 21:29:45 27° 115° (ESE) 21:33:12 435.950
BEESAT 3 20 Sep 21:26:29 21:30:31 83° 124° (ESE) 21:34:34 437.485
AAUSAT CUBESAT 2 20 Sep 21:29:38 21:32:28 18° 269° (W) 21:35:19 437.432
FO-29 20 Sep 21:30:07 21:34:34 26° 94° (E) 21:39:19 435.910
Tancredo 1 20 Sep 21:32:29 21:35:06 45° 146° (SE) 21:37:43 437.200
EO-88 20 Sep 21:41:14 21:44:33 33° 70° (ENE) 21:47:53 145.990 - 145.960
UNISAT 6 20 Sep 21:49:34 21:51:38 13° 88° (E) 21:53:41 437.425
DELFI C3 20 Sep 21:53:17 21:57:15 84° 77° (ENE) 22:01:14 145.870
NO-84 20 Sep 21:56:29 21:59:10 32° 224° (SW) 22:01:45 435.350 FM
ISS 20 Sep 22:05:30 22:07:57 20° 137° (SE) 22:10:25 437.550
Max Valier Satellite 20 Sep 22:05:54 22:09:37 88° 76° (ENE) 22:13:23 145.860
TIGRISAT 20 Sep 22:13:08 22:16:36 20° 92° (E) 22:20:03 435.000
PCSat 20 Sep 22:18:49 22:20:44 12° 24° (NNE) 22:22:40 145.827
AO-73 20 Sep 22:22:09 22:22:56 10° 274° (W) 22:23:45 145.935
ESTCUBE 1 20 Sep 22:23:37 22:26:09 15° 60° (ENE) 22:28:41 437.505/2401.250
Oscar 11 20 Sep 22:23:44 22:25:54 13° 271° (W) 22:28:04 .
STRAND 1 20 Sep 22:25:26 22:28:45 18° 301° (WNW) 22:32:03 437.568
SO-50 20 Sep 22:45:04 22:48:57 27° 40° (NE) 22:52:52 436.795
LO-87 20 Sep 22:48:57 22:51:58 27° 69° (ENE) 22:55:01 145.935 - 145.965
nSIGHT-1 20 Sep 22:50:35 22:53:44 51° 146° (SE) 22:56:54 .
YUBILEINY 20 Sep 23:00:28 23:08:00 31° 65° (ENE) 23:15:31 435.215
AO-85 20 Sep 23:03:22 23:06:55 33° 315° (NW) 23:10:35 145.980
BEESAT 2 20 Sep 23:03:38 23:07:23 35° 314° (NW) 23:11:09 435.950
BEESAT 3 20 Sep 23:05:56 23:08:36 17° 325° (NW) 23:11:17 437.485
Tancredo 1 20 Sep 23:07:13 23:09:44 33° 345° (NNW) 23:12:15 437.200
FO-29 20 Sep 23:14:48 23:19:53 48° 291° (WNW) 23:25:25 435.910
EO-88 20 Sep 23:15:39 23:18:17 19° 267° (W) 23:20:57 145.990 - 145.960
UNISAT 6 20 Sep 23:24:12 23:28:51 78° 286° (WNW) 23:33:33 437.425
SPROUT 20 Sep 23:31:59 23:34:47 17° 62° (ENE) 23:37:35 437.525
ISS 20 Sep 23:40:51 23:44:08 72° 335° (NNW) 23:47:26 437.550
PRISM 20 Sep 23:48:22 23:52:25 78° 287° (WNW) 23:56:28 437.425
TIGRISAT 20 Sep 23:49:02 23:53:31 49° 289° (WNW) 23:58:01 435.000
ESTCUBE 1 20 Sep 23:57:51 00:02:23 72° 258° (WSW) 00:06:56 437.505/2401.250
PCSat 21 Sep 00:00:40 00:05:45 38° 48° (NE) 00:10:47 145.827
NANOSAT C BR1 21 Sep 00:14:56 00:17:48 17° 92° (E) 00:20:39 145.865
AIST 2D 21 Sep 00:15:20 00:18:46 47° 99° (E) 00:22:10 435.315
LO-87 21 Sep 00:22:41 00:25:24 20° 266° (W) 00:28:07 145.935 - 145.965
SO-50 21 Sep 00:25:12 00:29:40 53° 239° (WSW) 00:34:10 436.795
DX 1 21 Sep 00:27:01 00:29:28 15° 60° (ENE) 00:31:57 434.975-435.025
nSIGHT-1 21 Sep 00:27:04 00:30:09 39° 345° (NNW) 00:33:15 .
UKube-1 21 Sep 00:29:03 00:29:41 10° 57° (ENE) 00:30:20 .
VELOX 1 21 Sep 00:41:28 00:45:50 66° 73° (ENE) 00:50:13 145.980
Tancredo 1 21 Sep 00:42:29 00:44:47 24° 4° (N) 00:47:05 437.200
DUCHIFAT 1 21 Sep 00:44:36 00:48:23 31° 96° (E) 00:52:10 145.980
POLYITAN 1 21 Sep 00:53:02 00:57:12 47° 99° (E) 01:01:20 437.675
50 SAT 21 Sep 00:53:48 00:56:35 25° 69° (ENE) 00:59:23 437.505
YUBILEINY 21 Sep 00:56:53 01:05:29 67° 267° (W) 01:14:06 435.215
EO-79 21 Sep 00:58:16 01:02:29 54° 100° (E) 01:06:40 145.935-145.965
UNISAT 6 21 Sep 01:03:31 01:04:47 11° 303° (WNW) 01:06:03 437.425
SPROUT 21 Sep 01:06:09 01:10:17 52° 260° (W) 01:14:27 437.525
QB50P2 21 Sep 01:10:38 01:14:57 81° 105° (ESE) 01:19:13 145.880/145.840
ISS 21 Sep 01:18:00 01:20:58 30° 354° (N) 01:23:57 437.550
Oscar 19 21 Sep 01:26:30 01:29:02 14° 88° (E) 01:31:33 437.125/150
BUGSAT 1 21 Sep 01:33:05 01:36:43 28° 96° (E) 01:40:21 437.445
PCSat 21 Sep 01:44:09 01:49:09 39° 247° (WSW) 01:54:08 145.827
M-CUBED/EXP-1 PRIME 21 Sep 01:46:48 01:50:01 39° 104° (ESE) 01:53:06 437.505
NANOSAT C BR1 21 Sep 01:49:39 01:53:46 48° 289° (WNW) 01:57:52 145.865
AIST 2D 21 Sep 01:49:48 01:51:34 13° 296° (WNW) 01:53:19 435.315
UKube-1 21 Sep 02:00:40 02:04:58 82° 73° (ENE) 02:09:18 .
DX 1 21 Sep 02:00:50 02:05:09 66° 258° (WSW) 02:09:29 434.975-435.025
nSIGHT-1 21 Sep 02:04:05 02:07:00 29° 5° (N) 02:09:56 .
Tancredo 1 21 Sep 02:17:01 02:19:42 57° 23° (NNE) 02:22:24 437.200
DUCHIFAT 1 21 Sep 02:20:21 02:23:58 27° 293° (WNW) 02:27:34 145.980
VELOX 1 21 Sep 02:20:32 02:22:43 14° 270° (W) 02:24:55 145.980
Gurwin Techsat 1B 21 Sep 02:23:24 02:28:06 31° 95° (E) 02:32:45 435.225
50 SAT 21 Sep 02:26:37 02:29:05 19° 265° (W) 02:31:34 437.505
POLYITAN 1 21 Sep 02:29:36 02:32:39 19° 297° (WNW) 02:35:40 437.675
EO-79 21 Sep 02:35:04 02:37:50 17° 298° (WNW) 02:40:36 145.935-145.965
ITUPSAT 1 21 Sep 02:36:01 02:40:01 27° 64° (ENE) 02:44:00 437.325
MOZHAYETS 4 21 Sep 02:37:18 02:41:05 26° 65° (ENE) 02:44:53
O/OREOS (USA 219) 21 Sep 02:43:27 02:46:43 20° 101° (E) 02:50:01 437.305
QB50P2 21 Sep 02:48:23 02:50:06 12° 301° (WNW) 02:51:48 145.880/145.840
ISS 21 Sep 02:54:52 02:57:59 38° 14° (NNE) 03:01:05 437.550
YUBILEINY 21 Sep 02:56:47 03:00:29 13° 289° (WNW) 03:04:13 435.215
CUBESAT XI-V 21 Sep 02:58:29 02:59:20 10° 56° (NE) 03:00:11 437.345
Oscar 19 21 Sep 03:03:48 03:09:01 83° 287° (WNW) 03:14:10 437.125/150
AO-7 21 Sep 03:04:45 03:09:08 15° 86° (E) 03:13:29 .
BUGSAT 1 21 Sep 03:08:23 03:12:02 29° 292° (WNW) 03:15:39 437.445
BEESAT 21 Sep 03:14:02 03:18:42 60° 72° (ENE) 03:23:25 436.000
M-CUBED/EXP-1 PRIME 21 Sep 03:22:11 03:24:09 15° 303° (WNW) 03:26:05 437.505
nSIGHT-1 21 Sep 03:40:27 03:43:43 66° 25° (NNE) 03:46:58 .
UKube-1 21 Sep 03:40:52 03:41:33 10° 272° (W) 03:42:16 .
Tancredo 1 21 Sep 03:52:01 03:54:03 19° 221° (SW) 03:56:05 437.200
ITAMSAT 1 21 Sep 04:02:12 04:06:30 26° 94° (E) 04:10:47 435.822/435.867
Gurwin Techsat 1B 21 Sep 04:03:10 04:08:06 40° 293° (WNW) 04:13:00 435.225
BEESAT 3 21 Sep 04:04:14 04:06:57 17° 36° (NE) 04:09:40 437.485
AO-85 21 Sep 04:11:46 04:13:42 13° 30° (NNE) 04:15:41 145.980
ITUPSAT 1 21 Sep 04:13:13 04:17:40 39° 262° (W) 04:22:10 437.325
MOZHAYETS 4 21 Sep 04:13:44 04:18:03 39° 263° (W) 04:22:24
O/OREOS (USA 219) 21 Sep 04:21:25 04:25:46 47° 300° (WNW) 04:30:11 437.305
CUBESAT XI-V 21 Sep 04:31:09 04:35:51 73° 74° (ENE) 04:40:34 437.345
ISS 21 Sep 04:31:20 04:34:35 56° 213° (SSW) 04:37:48 437.550
RS-15 21 Sep 04:39:41 04:48:10 23° 98° (E) 04:56:40 29.354- 29.394
Oscar 19 21 Sep 04:45:02 04:47:31 14° 305° (NW) 04:50:01 437.125/150
BEESAT 21 Sep 04:53:48 04:56:53 17° 269° (W) 04:59:59 436.000
AO-7 21 Sep 04:55:01 05:03:21 72° 107° (ESE) 05:11:37 .
KKS-1 21 Sep 04:56:03 05:00:20 51° 71° (ENE) 05:04:38 437.445
nSIGHT-1 21 Sep 05:17:14 05:19:48 21° 222° (SW) 05:22:22 .
STARS 21 Sep 05:29:15 05:33:25 47° 70° (ENE) 05:37:38 437.465
DOVE 4 21 Sep 05:29:34 05:32:13 16° 92° (E) 05:34:53 437.250
BEESAT 3 21 Sep 05:41:01 05:45:01 77° 235° (SW) 05:48:56 437.485
BEESAT 2 21 Sep 05:41:02 05:44:53 39° 47° (NE) 05:48:41 435.950
ITAMSAT 1 21 Sep 05:41:12 05:46:10 46° 292° (WNW) 05:51:06 435.822/435.867
AO-85 21 Sep 05:50:42 05:54:59 55° 50° (NE) 05:59:35 145.980
CUBESAT XI-V 21 Sep 06:11:23 06:13:45 14° 272° (W) 06:16:05 437.345
XW-2C 21 Sep 06:21:03 06:23:19 15° 91° (E) 06:25:34 145.795 - 145.815
STRAND 1 21 Sep 06:26:04 06:29:44 20° 60° (ENE) 06:33:24 437.568
LilacSat-2 21 Sep 06:29:11 06:32:04 20° 93° (E) 06:34:55 437.200
KKS-1 21 Sep 06:34:13 06:37:11 18° 268° (W) 06:40:10 437.445
NUDT-PHONESAT 21 Sep 06:35:49 06:38:08 16° 91° (E) 06:40:26 437.300
RS-15 21 Sep 06:46:25 06:58:40 79° 121° (ESE) 07:10:58 29.354- 29.394
AO-7 21 Sep 06:48:31 06:55:29 32° 307° (NW) 07:02:27 .
KAITUO 1B 21 Sep 06:58:40 07:01:59 29° 96° (E) 07:05:17 145.475/437.950
DOVE 4 21 Sep 07:06:08 07:10:11 49° 288° (WNW) 07:14:21 437.250
STARS 21 Sep 07:06:58 07:10:00 18° 268° (W) 07:13:04 437.465
CUTE-I 21 Sep 07:07:28 07:12:29 41° 98° (E) 07:17:31 437.470
BEESAT 2 21 Sep 07:19:07 07:22:27 25° 245° (WSW) 07:25:43 435.950
XW-2D 21 Sep 07:20:29 07:24:20 75° 102° (ESE) 07:28:08 145.860 - 145.880
CUBEBUG 2 21 Sep 07:23:10 07:24:12 11° 86° (E) 07:25:15 437.445
CUTE 1.7 + AOD 2 21 Sep 07:23:28 07:26:12 17° 90° (E) 07:28:56 437.475
HO-68 21 Sep 07:26:36 07:32:31 27° 93° (E) 07:38:23 435.675
AO-85 21 Sep 07:31:45 07:35:07 21° 246° (WSW) 07:38:39 145.980
XW-2B 21 Sep 07:32:45 07:36:36 82° 284° (WNW) 07:40:24 145.730 - 145.750
XW-2F 21 Sep 07:35:12 07:39:02 80° 284° (WNW) 07:42:48 145.980 - 146.000
FO-29 21 Sep 07:47:34 07:50:38 15° 58° (ENE) 07:53:37 435.910
XW-2C 21 Sep 07:54:05 07:57:45 44° 288° (WNW) 08:01:22 145.795 - 145.815
LilacSat-2 21 Sep 08:02:55 08:06:26 34° 290° (WNW) 08:09:54 437.200
STRAND 1 21 Sep 08:03:25 08:08:27 62° 258° (WSW) 08:13:32 437.568
NUDT-PHONESAT 21 Sep 08:08:40 08:12:13 41° 289° (WNW) 08:15:43 437.300
AO-73 21 Sep 08:28:24 08:30:58 15° 89° (E) 08:33:31 145.935
ZACube-1 21 Sep 08:29:07 08:32:05 17° 90° (E) 08:35:02 437.345
KAITUO 1B 21 Sep 08:32:52 08:35:51 22° 293° (WNW) 08:38:48 145.475/437.950
Oscar 11 21 Sep 08:33:00 08:33:14 10° 87° (E) 08:33:29 .
SEEDS 21 Sep 08:35:48 08:39:58 60° 101° (E) 08:44:04 437.485
CUTE-I 21 Sep 08:47:48 08:52:24 30° 296° (WNW) 08:57:00 437.470
UNISAT 6 21 Sep 08:50:55 08:53:22 15° 60° (ENE) 08:55:51 437.425
CUBEBUG 2 21 Sep 08:56:45 09:01:27 89° 109° (ESE) 09:06:12 437.445
XW-2D 21 Sep 08:57:03 08:57:55 11° 300° (WNW) 08:58:46 145.860 - 145.880
CUTE 1.7 + AOD 2 21 Sep 08:58:13 09:02:19 49° 288° (WNW) 09:06:24 437.475
RS-15 21 Sep 09:00:42 09:12:23 45° 328° (NNW) 09:23:58 29.354- 29.394
AAUSAT CUBESAT 2 21 Sep 09:07:24 09:11:29 60° 100° (E) 09:15:32 437.432
PRISM 21 Sep 09:07:27 09:08:51 12° 59° (ENE) 09:10:16 437.425
XW-2A 21 Sep 09:08:25 09:11:51 73° 285° (WNW) 09:15:16 145.665 - 145.685
UWE-3 21 Sep 09:09:50 09:14:30 73° 102° (ESE) 09:19:11 435.000/436.395/437.385
HO-68 21 Sep 09:13:38 09:20:45 66° 292° (WNW) 09:27:51 435.675
TIGRISAT 21 Sep 09:14:20 09:17:42 22° 64° (ENE) 09:21:08 435.000
FO-29 21 Sep 09:29:21 09:35:10 86° 256° (WSW) 09:40:30 435.910
AO-73 21 Sep 10:03:05 10:07:38 66° 286° (WNW) 10:12:10 145.935
ZACube-1 21 Sep 10:04:11 10:08:42 58° 287° (WNW) 10:13:12 437.345
Oscar 11 21 Sep 10:05:37 10:09:59 85° 282° (WNW) 10:14:18 .
SEEDS 21 Sep 10:12:47 10:15:10 15° 298° (WNW) 10:17:33 437.485
UNISAT 6 21 Sep 10:25:14 10:29:32 67° 259° (WSW) 10:33:58 437.425
CUBEBUG 2 21 Sep 10:35:17 10:37:23 13° 301° (WNW) 10:39:30 437.445
PRISM 21 Sep 10:39:25 10:43:31 80° 255° (WSW) 10:47:38 437.425
EO-88 21 Sep 10:40:43 10:44:00 30° 96° (E) 10:47:14 145.990 - 145.960
AAUSAT CUBESAT 2 21 Sep 10:44:12 10:46:28 15° 298° (WNW) 10:48:43 437.432
UWE-3 21 Sep 10:47:43 10:50:23 15° 299° (WNW) 10:53:04 435.000/436.395/437.385
TIGRISAT 21 Sep 10:50:05 10:54:09 40° 263° (W) 10:58:20 435.000
AIST 2D 21 Sep 10:51:56 10:54:54 25° 69° (ENE) 10:57:53 435.315
DELFI C3 21 Sep 11:02:12 11:06:08 83° 284° (WNW) 11:10:03 145.870
M-CUBED/EXP-1 PRIME 21 Sep 11:02:48 11:04:09 11° 55° (NE) 11:05:29 437.505
HO-68 21 Sep 11:03:10 11:07:12 16° 313° (NW) 11:11:14 435.675
Max Valier Satellite 21 Sep 11:06:56 11:10:42 86° 100° (E) 11:14:27 145.860
NANOSAT C BR1 21 Sep 11:09:27 11:12:21 18° 63° (ENE) 11:15:15 145.865
O/OREOS (USA 219) 21 Sep 11:12:54 11:13:37 10° 42° (NE) 11:14:19 437.305
RS-15 21 Sep 11:18:23 11:28:58 31° 1° (N) 11:39:14 29.354- 29.394
FO-29 21 Sep 11:18:59 11:20:58 12° 272° (W) 11:22:54 435.910
DUCHIFAT 1 21 Sep 11:38:32 11:42:13 31° 68° (ENE) 11:45:55 145.980
Oscar 11 21 Sep 11:44:27 11:45:22 11° 302° (WNW) 11:46:17 .
LO-87 21 Sep 11:46:17 11:49:16 24° 95° (E) 11:52:14 145.935 - 145.965
POLYITAN 1 21 Sep 11:47:36 11:51:38 48° 71° (ENE) 11:55:43 437.675
ESTCUBE 1 21 Sep 11:48:31 11:51:50 20° 92° (E) 11:55:07 437.505/2401.250
EO-79 21 Sep 11:52:39 11:56:44 54° 72° (ENE) 12:00:52 145.935-145.965
QB50P2 21 Sep 12:05:07 12:09:19 82° 75° (ENE) 12:13:35 145.880/145.840
YUBILEINY 21 Sep 12:05:30 12:12:48 31° 82° (E) 12:20:04 435.215
Gurwin Techsat 1B 21 Sep 12:12:00 12:13:03 11° 52° (NE) 12:14:06 435.225
EO-88 21 Sep 12:14:41 12:17:30 21° 293° (WNW) 12:20:17 145.990 - 145.960
BUGSAT 1 21 Sep 12:25:09 12:28:31 26° 67° (ENE) 12:31:56 437.445
AIST 2D 21 Sep 12:25:12 12:28:03 23° 266° (W) 12:30:56 435.315
M-CUBED/EXP-1 PRIME 21 Sep 12:33:41 12:38:03 88° 70° (ENE) 12:42:06 437.505
